Carbondale, IL (62901)

10:52 AM CST on February 06, 2016 (GMT -0600)
Public Works | | Change Station
CLOSE
Current Station
Personal Weather Station
Location: Carbondale, IL
Elevation: 400 ft
Nearby Weather Stations

Elev 400 ft 37.73 °N, 89.22 °W | Updated 1 minute ago

Clear
Clear
48.9 °F
Feels Like 49 °F
N
0.0
Wind Variable Wind from SW
Gusts 6.0 mph

Today
High -- | Low -- °F
--% Chance of Precip.
Yesterday
High -- | Low -- °F
Precip. -- in
Pressure 30.37 in
Visibility 10.0 miles
Clouds Clear
Windchill 49 °F
Dew Point 27 °F
Humidity 43%
Rainfall 0.00 in
Snow Depth Not available.
6:56 AM 5:25 PM
Waning Crescent, 5% visible
METAR KMDH 061552Z AUTO 22003KT 10SM CLR 06/M03 A3035 RMK AO2 SLP282 T00611028
Pressure 30.37 in
Visibility 10.0 miles
Clouds Clear
Windchill 49 °F
Dew Point 27 °F
Humidity 43%
Rainfall 0.00 in
Snow Depth Not available.
6:56 AM 5:25 PM
Waning Crescent, 5% visible
METAR KMDH 061552Z AUTO 22003KT 10SM CLR 06/M03 A3035 RMK AO2 SLP282 T00611028

10-Day Weather Forecast

Almanac

Astronomy

Feb. 06, 2016 Rise Set
Actual Time
Civil Twilight
Nautical Twilight
Astronomical Twilight
Moon
Length of Visible Light
Length of Day
Tomorrow will be .
, % of the Moon is Illuminated

Today's Extremes

State Highs State Lows

Community

WunderPhotos

Upload Photos

1,891,017 photos uploaded!

WunderBlog® & News

Nearby

Air Quality

  Air Quality AQ Index Pollutant
Not available.

Snow Depth

Station Depth Elevation

Earthquake Activity

City Distance Mag. Time & Date
Minimum magnitude displayed is 2.5.

Coastal Water Temperatures

Place Temperature

Stations

Nearby Weather Stations

Station Location Temp. Windchill Dew Point Humidity Wind Precip. Elev Updated Type
                   

Watches & Warnings

There are currently no watches in effect.